QFA846 PAOM-PANC

Flight info

Callsign QFA846
Flight time 1h 21m
Altitude 37000
Route OME J111 WINOR KROTO5
Aircraft B738/M-SDE2E3FGHIRWXY/LB1

Departure

Time 2026-04-17 10:39
Airport Nome Airport (PAOM)

Arrival

Time 2026-04-17 12:01
Airport Ted Stevens Anchorage International Airport (PANC)
Time Latitude Longitude Altitude Speed Heading
2026-04-17 10:12 64.51114 -165.43410 48 ft 0 kts 20°
2026-04-17 10:34 64.51111 -165.43413 48 ft 3 kts 23°
2026-04-17 10:35 64.51089 -165.43431 48 ft 3 kts 353°
2026-04-17 10:35 64.51074 -165.43397 48 ft 4 kts 289°
2026-04-17 10:35 64.51066 -165.43345 48 ft 2 kts 290°
2026-04-17 10:35 64.51065 -165.43342 48 ft 0 kts 290°
2026-04-17 10:37 64.51070 -165.43359 48 ft 6 kts 312°
2026-04-17 10:37 64.51085 -165.43325 48 ft 10 kts 104°
2026-04-17 10:38 64.51028 -165.43135 48 ft 18 kts 174°
2026-04-17 10:38 64.50918 -165.43234 48 ft 17 kts 226°
2026-04-17 10:38 64.50925 -165.43539 48 ft 28 kts 291°
2026-04-17 10:38 64.51070 -165.44478 48 ft 98 kts 290°
2026-04-17 10:39 64.51374 -165.46430 107 ft 150 kts 290°
2026-04-17 10:39 64.51747 -165.48817 602 ft 162 kts 291°
2026-04-17 10:39 64.52142 -165.51316 1257 ft 168 kts 296°
2026-04-17 10:39 64.53010 -165.53145 1718 ft 182 kts 345°
2026-04-17 10:40 64.54306 -165.52620 2394 ft 210 kts 34°
2026-04-17 10:40 64.55134 -165.49736 3501 ft 223 kts 77°
2026-04-17 10:40 64.55088 -165.46107 4657 ft 231 kts 101°
2026-04-17 10:40 64.54628 -165.42344 5598 ft 254 kts 108°
2026-04-17 10:41 64.53930 -165.38545 6662 ft 258 kts 117°
2026-04-17 10:41 64.53033 -165.34885 7717 ft 263 kts 122°
2026-04-17 10:41 64.51932 -165.31435 8820 ft 269 kts 131°
2026-04-17 10:41 64.50694 -165.28138 10006 ft 273 kts 130°
2026-04-17 10:42 64.49462 -165.24757 11262 ft 275 kts 130°
2026-04-17 10:42 64.48260 -165.21256 12455 ft 280 kts 124°
2026-04-17 10:42 64.47359 -165.17229 13547 ft 282 kts 109°
2026-04-17 10:42 64.46916 -165.12889 14520 ft 271 kts 101°
2026-04-17 10:43 64.46534 -165.08668 15151 ft 269 kts 104°
2026-04-17 10:43 64.46067 -165.04367 15356 ft 284 kts 104°
2026-04-17 10:43 64.45562 -164.99771 15411 ft 306 kts 104°
2026-04-17 10:43 64.45011 -164.94823 15423 ft 330 kts 104°
2026-04-17 10:44 64.44408 -164.89490 15425 ft 355 kts 104°
2026-04-17 10:44 64.43756 -164.83775 15424 ft 379 kts 105°
2026-04-17 10:44 64.43093 -164.78002 15412 ft 360 kts 105°
2026-04-17 10:44 64.42467 -164.72582 15406 ft 337 kts 105°
2026-04-17 10:45 64.41879 -164.67507 15402 ft 316 kts 105°
2026-04-17 10:45 64.41325 -164.62747 15401 ft 297 kts 105°
2026-04-17 10:45 64.40796 -164.58222 15408 ft 290 kts 105°
2026-04-17 10:45 64.40268 -164.53713 15413 ft 292 kts 105°
2026-04-17 10:46 64.39730 -164.49124 15678 ft 297 kts 105°
2026-04-17 10:46 64.39186 -164.44508 16483 ft 298 kts 105°
2026-04-17 10:46 64.38641 -164.39888 17609 ft 298 kts 105°
2026-04-17 10:46 64.38091 -164.35248 18699 ft 302 kts 105°
2026-04-17 10:47 64.37530 -164.30529 19653 ft 307 kts 105°
2026-04-17 10:47 64.36958 -164.25729 20574 ft 312 kts 105°
2026-04-17 10:47 64.36377 -164.20867 21467 ft 316 kts 105°
2026-04-17 10:47 64.35785 -164.15936 22315 ft 321 kts 105°
2026-04-17 10:48 64.35185 -164.10941 23104 ft 325 kts 105°
2026-04-17 10:48 64.34575 -164.05878 23867 ft 330 kts 105°
2026-04-17 10:48 64.33951 -164.00754 24593 ft 334 kts 105°
2026-04-17 10:48 64.33312 -163.95564 25261 ft 339 kts 105°
2026-04-17 10:49 64.32665 -163.90300 25906 ft 343 kts 105°
2026-04-17 10:49 64.32012 -163.84961 26521 ft 348 kts 105°
2026-04-17 10:49 64.31349 -163.79549 27087 ft 353 kts 105°
2026-04-17 10:49 64.30672 -163.74043 27574 ft 360 kts 105°
2026-04-17 10:50 64.29981 -163.68452 28080 ft 366 kts 105°
2026-04-17 10:50 64.29278 -163.62785 28608 ft 370 kts 105°
2026-04-17 10:50 64.28567 -163.57068 29140 ft 373 kts 105°
2026-04-17 10:50 64.27845 -163.51297 29623 ft 377 kts 105°
2026-04-17 10:51 64.27114 -163.45471 30095 ft 381 kts 105°
2026-04-17 10:51 64.26372 -163.39589 30543 ft 385 kts 105°
2026-04-17 10:51 64.25622 -163.33656 30948 ft 389 kts 105°
2026-04-17 10:51 64.24861 -163.27652 31345 ft 393 kts 106°
2026-04-17 10:52 64.24090 -163.21600 31762 ft 396 kts 106°
2026-04-17 10:52 64.23310 -163.15505 32147 ft 400 kts 106°
2026-04-17 10:52 64.22518 -163.09329 32399 ft 406 kts 106°
2026-04-17 10:52 64.21712 -163.03080 32747 ft 409 kts 106°
2026-04-17 10:53 64.20898 -162.96787 33095 ft 413 kts 106°
2026-04-17 10:53 64.20073 -162.90439 33396 ft 417 kts 106°
2026-04-17 10:53 64.19238 -162.84034 33697 ft 420 kts 107°
2026-04-17 10:53 64.18395 -162.77593 34007 ft 423 kts 107°
2026-04-17 10:54 64.17542 -162.71105 34310 ft 426 kts 107°
2026-04-17 10:54 64.16680 -162.64579 34602 ft 429 kts 107°
2026-04-17 10:54 64.15809 -162.58007 34853 ft 432 kts 107°
2026-04-17 10:54 64.14930 -162.51404 35145 ft 435 kts 107°
2026-04-17 10:55 64.14043 -162.44757 35396 ft 437 kts 107°
2026-04-17 10:55 64.13148 -162.38088 35658 ft 440 kts 107°
2026-04-17 10:55 64.12244 -162.31370 35906 ft 442 kts 107°
2026-04-17 10:55 64.11332 -162.24628 36144 ft 445 kts 107°
2026-04-17 10:56 64.10414 -162.17863 36380 ft 447 kts 107°
2026-04-17 10:56 64.09486 -162.11057 36579 ft 450 kts 108°
2026-04-17 10:56 64.08545 -162.04183 36645 ft 456 kts 108°
2026-04-17 10:56 64.07592 -161.97251 36816 ft 458 kts 108°
2026-04-17 10:57 64.06632 -161.90297 36876 ft 459 kts 108°
2026-04-17 10:57 64.04707 -161.76434 36899 ft 457 kts 108°
2026-04-17 10:58 64.02770 -161.62610 36901 ft 457 kts 108°
2026-04-17 10:58 64.00822 -161.48806 36900 ft 457 kts 108°
2026-04-17 10:59 63.98858 -161.35022 36899 ft 457 kts 108°
2026-04-17 10:59 63.96882 -161.21269 36897 ft 457 kts 108°
2026-04-17 11:00 63.94895 -161.07533 36893 ft 457 kts 109°
2026-04-17 11:00 63.92898 -160.93841 36893 ft 456 kts 109°
2026-04-17 11:01 63.90887 -160.80157 36892 ft 456 kts 109°
2026-04-17 11:01 63.88864 -160.66502 36891 ft 456 kts 109°
2026-04-17 11:02 63.86674 -160.52993 36892 ft 456 kts 111°
2026-04-17 11:02 63.84388 -160.39576 36891 ft 456 kts 111°
2026-04-17 11:03 63.82159 -160.26120 36893 ft 456 kts 111°
2026-04-17 11:03 63.79948 -160.12664 36893 ft 456 kts 111°
2026-04-17 11:04 63.77701 -159.99249 36893 ft 456 kts 111°
2026-04-17 11:04 63.75435 -159.85870 36893 ft 456 kts 111°
2026-04-17 11:05 63.73162 -159.72500 36894 ft 456 kts 111°
2026-04-17 11:05 63.70877 -159.59138 36895 ft 457 kts 112°
2026-04-17 11:06 63.68575 -159.45789 36895 ft 456 kts 112°
2026-04-17 11:06 63.66264 -159.32488 36895 ft 456 kts 112°
2026-04-17 11:07 63.63938 -159.19186 36897 ft 457 kts 112°
2026-04-17 11:07 63.61601 -159.05906 36897 ft 456 kts 112°
2026-04-17 11:08 63.59646 -158.94876 36897 ft 458 kts 112°
2026-04-17 11:08 63.57283 -158.81622 36896 ft 457 kts 113°
2026-04-17 11:09 63.54910 -158.68402 36898 ft 457 kts 113°
2026-04-17 11:09 63.52525 -158.55206 36905 ft 458 kts 113°
2026-04-17 11:10 63.48917 -158.35417 36907 ft 457 kts 113°
2026-04-17 11:10 63.46497 -158.22252 36907 ft 457 kts 113°
2026-04-17 11:11 63.44071 -158.09142 36907 ft 456 kts 114°
2026-04-17 11:11 63.41631 -157.96043 36909 ft 457 kts 114°
2026-04-17 11:12 63.39172 -157.82934 36909 ft 458 kts 114°
2026-04-17 11:12 63.36707 -157.69872 36909 ft 457 kts 114°
2026-04-17 11:13 63.34228 -157.56825 36910 ft 458 kts 114°
2026-04-17 11:13 63.31734 -157.43782 36892 ft 457 kts 114°
2026-04-17 11:14 63.29234 -157.30795 36888 ft 457 kts 115°
2026-04-17 11:14 63.26716 -157.17797 36886 ft 458 kts 115°
2026-04-17 11:15 63.24208 -157.04936 36887 ft 457 kts 115°
2026-04-17 11:15 63.21668 -156.91992 36886 ft 457 kts 115°
2026-04-17 11:16 63.19102 -156.79001 36882 ft 457 kts 115°
2026-04-17 11:16 63.16540 -156.66111 36880 ft 457 kts 115°
2026-04-17 11:17 63.13963 -156.53226 36878 ft 458 kts 116°
2026-04-17 11:17 63.11374 -156.40365 36877 ft 458 kts 116°
2026-04-17 11:18 63.08775 -156.27533 36876 ft 458 kts 116°
2026-04-17 11:18 63.06163 -156.14719 36875 ft 458 kts 116°
2026-04-17 11:19 63.03538 -156.01919 36874 ft 458 kts 116°
2026-04-17 11:19 63.00900 -155.89138 36873 ft 459 kts 116°
2026-04-17 11:20 62.98246 -155.76371 36872 ft 458 kts 117°
2026-04-17 11:20 62.95583 -155.63642 36872 ft 458 kts 117°
2026-04-17 11:21 62.92554 -155.51397 36874 ft 455 kts 126°
2026-04-17 11:21 62.89067 -155.39781 36874 ft 456 kts 124°
2026-04-17 11:22 62.85750 -155.27925 36873 ft 457 kts 124°
2026-04-17 11:22 62.82411 -155.16107 36872 ft 456 kts 124°
2026-04-17 11:23 62.79062 -155.04321 36872 ft 456 kts 124°
2026-04-17 11:23 62.75703 -154.92566 36872 ft 456 kts 124°
2026-04-17 11:24 62.72332 -154.80830 36872 ft 457 kts 124°
2026-04-17 11:24 62.68948 -154.69111 36872 ft 457 kts 124°
2026-04-17 11:25 62.65558 -154.57431 36872 ft 456 kts 125°
2026-04-17 11:25 62.62160 -154.45782 36871 ft 457 kts 125°
2026-04-17 11:26 62.58747 -154.34144 36870 ft 457 kts 125°
2026-04-17 11:26 62.55326 -154.22536 36870 ft 457 kts 125°
2026-04-17 11:27 62.51897 -154.10964 36870 ft 455 kts 125°
2026-04-17 11:27 62.48465 -153.99432 36869 ft 456 kts 126°
2026-04-17 11:28 62.45013 -153.87905 36868 ft 457 kts 126°
2026-04-17 11:28 62.41552 -153.76399 36869 ft 456 kts 126°
2026-04-17 11:29 62.38086 -153.64935 36867 ft 456 kts 126°
2026-04-17 11:29 62.34613 -153.53504 36867 ft 456 kts 126°
2026-04-17 11:30 62.31132 -153.42104 36867 ft 456 kts 126°
2026-04-17 11:30 62.27641 -153.30729 36866 ft 456 kts 126°
2026-04-17 11:31 62.24137 -153.19368 36866 ft 457 kts 126°
2026-04-17 11:31 62.20618 -153.08016 36865 ft 457 kts 126°
2026-04-17 11:32 62.17095 -152.96707 36865 ft 457 kts 127°
2026-04-17 11:32 62.13849 -152.84995 36865 ft 460 kts 118°
2026-04-17 11:33 62.11535 -152.72190 36865 ft 462 kts 112°
2026-04-17 11:33 62.09222 -152.59414 36809 ft 456 kts 114°
2026-04-17 11:34 62.08065 -152.53166 36197 ft 452 kts 115°
2026-04-17 11:34 62.06896 -152.46905 35378 ft 454 kts 116°
2026-04-17 11:34 62.05730 -152.40684 34713 ft 451 kts 116°
2026-04-17 11:34 62.04559 -152.34471 33902 ft 452 kts 117°
2026-04-17 11:35 62.03386 -152.28274 33129 ft 451 kts 117°
2026-04-17 11:35 62.02211 -152.22087 32357 ft 450 kts 117°
2026-04-17 11:35 62.01040 -152.15929 31572 ft 448 kts 118°
2026-04-17 11:35 61.99875 -152.09809 30890 ft 444 kts 118°
2026-04-17 11:36 61.98712 -152.03738 30064 ft 443 kts 119°
2026-04-17 11:36 61.97541 -151.97682 29166 ft 443 kts 119°
2026-04-17 11:36 61.96375 -151.91631 28295 ft 442 kts 119°
2026-04-17 11:36 61.95214 -151.85617 27595 ft 437 kts 119°
2026-04-17 11:37 61.94068 -151.79691 26905 ft 431 kts 119°
2026-04-17 11:37 61.92935 -151.73861 26350 ft 422 kts 117°
2026-04-17 11:37 61.91824 -151.68155 25694 ft 416 kts 118°
2026-04-17 11:37 61.90720 -151.62510 24940 ft 413 kts 118°
2026-04-17 11:38 61.89623 -151.56917 24233 ft 408 kts 118°
2026-04-17 11:38 61.88538 -151.51396 23553 ft 403 kts 118°
2026-04-17 11:38 61.87463 -151.45937 22837 ft 400 kts 119°
2026-04-17 11:38 61.86411 -151.40613 22259 ft 393 kts 119°
2026-04-17 11:39 61.85344 -151.35225 21549 ft 391 kts 119°
2026-04-17 11:39 61.84295 -151.29949 20905 ft 387 kts 120°
2026-04-17 11:39 61.83258 -151.24747 20315 ft 380 kts 117°
2026-04-17 11:39 61.82239 -151.19642 19768 ft 374 kts 117°
2026-04-17 11:40 61.81232 -151.14612 19244 ft 368 kts 117°
2026-04-17 11:40 61.80239 -151.09661 18734 ft 363 kts 117°
2026-04-17 11:40 61.79258 -151.04781 18234 ft 358 kts 118°
2026-04-17 11:40 61.78287 -150.99967 17742 ft 353 kts 118°
2026-04-17 11:41 61.77392 -150.95160 17257 ft 351 kts 113°
2026-04-17 11:41 61.76760 -150.90180 16777 ft 352 kts 107°
2026-04-17 11:41 61.76272 -150.85075 16300 ft 360 kts 107°
2026-04-17 11:41 61.75698 -150.79923 15805 ft 359 kts 109°
2026-04-17 11:42 61.75116 -150.74816 15308 ft 355 kts 109°
2026-04-17 11:42 61.74534 -150.69786 14817 ft 350 kts 108°
2026-04-17 11:42 61.73955 -150.64835 14334 ft 345 kts 105°
2026-04-17 11:42 61.73382 -150.59966 13860 ft 339 kts 105°
2026-04-17 11:43 61.72815 -150.55174 13394 ft 334 kts 106°
2026-04-17 11:43 61.72256 -150.50476 13099 ft 325 kts 106°
2026-04-17 11:43 61.71717 -150.45957 12955 ft 311 kts 106°
2026-04-17 11:43 61.71199 -150.41627 12829 ft 299 kts 106°
2026-04-17 11:44 61.70692 -150.37459 12687 ft 290 kts 109°
2026-04-17 11:44 61.69794 -150.33744 12471 ft 280 kts 132°
2026-04-17 11:44 61.68342 -150.31198 12258 ft 268 kts 153°
2026-04-17 11:44 61.66604 -150.29908 11899 ft 264 kts 171°
2026-04-17 11:45 61.64785 -150.29367 11462 ft 265 kts 176°
2026-04-17 11:45 61.62945 -150.29125 11030 ft 265 kts 178°
2026-04-17 11:45 61.61099 -150.28944 10610 ft 266 kts 178°
2026-04-17 11:45 61.59254 -150.28746 10201 ft 265 kts 177°
2026-04-17 11:46 61.57422 -150.28531 9879 ft 260 kts 176°
2026-04-17 11:46 61.55659 -150.28325 9776 ft 248 kts 176°
2026-04-17 11:46 61.53986 -150.28130 9559 ft 241 kts 176°
2026-04-17 11:46 61.52291 -150.27932 9255 ft 244 kts 176°
2026-04-17 11:47 61.50571 -150.27732 8939 ft 251 kts 176°
2026-04-17 11:47 61.48812 -150.27528 8599 ft 252 kts 176°
2026-04-17 11:47 61.47073 -150.27325 8257 ft 248 kts 176°
2026-04-17 11:47 61.45363 -150.27128 7919 ft 245 kts 176°
2026-04-17 11:48 61.43672 -150.26932 7594 ft 241 kts 176°
2026-04-17 11:48 61.42006 -150.26741 7270 ft 238 kts 175°
2026-04-17 11:48 61.40919 -150.26617 7058 ft 235 kts 175°
2026-04-17 11:48 61.39296 -150.26431 6754 ft 231 kts 175°
2026-04-17 11:49 61.37682 -150.26245 6451 ft 237 kts 175°
2026-04-17 11:49 61.36011 -150.26050 6133 ft 243 kts 175°
2026-04-17 11:49 61.34341 -150.25857 5814 ft 238 kts 175°
2026-04-17 11:49 61.32699 -150.25670 5497 ft 234 kts 175°
2026-04-17 11:50 61.31086 -150.25505 5217 ft 229 kts 180°
2026-04-17 11:50 61.29551 -150.26169 5061 ft 227 kts 200°
2026-04-17 11:50 61.28100 -150.27503 5027 ft 230 kts 202°
2026-04-17 11:50 61.26633 -150.28911 5014 ft 233 kts 202°
2026-04-17 11:51 61.25171 -150.30356 5001 ft 235 kts 210°
2026-04-17 11:51 61.24034 -150.32793 5001 ft 241 kts 239°
2026-04-17 11:51 61.23573 -150.36158 4848 ft 247 kts 263°
2026-04-17 11:51 61.23522 -150.39717 4669 ft 246 kts 268°
2026-04-17 11:52 61.23547 -150.43262 4512 ft 243 kts 269°
2026-04-17 11:52 61.23561 -150.46668 4391 ft 227 kts 269°
2026-04-17 11:52 61.23547 -150.49822 4228 ft 210 kts 269°
2026-04-17 11:52 61.23534 -150.52733 4078 ft 192 kts 269°
2026-04-17 11:53 61.23496 -150.55438 3947 ft 185 kts 259°
2026-04-17 11:53 61.22960 -150.57795 3889 ft 181 kts 229°
2026-04-17 11:53 61.21951 -150.59333 3880 ft 182 kts 201°
2026-04-17 11:53 61.20729 -150.60053 3873 ft 183 kts 189°
2026-04-17 11:54 61.19463 -150.60151 3836 ft 183 kts 171°
2026-04-17 11:54 61.18303 -150.59166 3797 ft 182 kts 139°
2026-04-17 11:54 61.17599 -150.57031 3747 ft 182 kts 107°
2026-04-17 11:54 61.17364 -150.54465 3662 ft 182 kts 95°
2026-04-17 11:55 61.17164 -150.51883 3543 ft 181 kts 103°
2026-04-17 11:55 61.16916 -150.49335 3429 ft 180 kts 97°
2026-04-17 11:55 61.16801 -150.46761 3320 ft 179 kts 92°
2026-04-17 11:55 61.16761 -150.44171 3170 ft 179 kts 90°
2026-04-17 11:56 61.16750 -150.41654 2951 ft 172 kts 90°
2026-04-17 11:56 61.16748 -150.39203 2729 ft 169 kts 90°
2026-04-17 11:56 61.16750 -150.36787 2549 ft 166 kts 89°
2026-04-17 11:56 61.16752 -150.34403 2424 ft 163 kts 89°
2026-04-17 11:57 61.16754 -150.32208 2295 ft 145 kts 89°
2026-04-17 11:57 61.16756 -150.30154 2155 ft 142 kts 89°
2026-04-17 11:57 61.16758 -150.28117 2066 ft 141 kts 89°
2026-04-17 11:57 61.16760 -150.26091 2009 ft 140 kts 89°
2026-04-17 11:58 61.16762 -150.24026 2016 ft 147 kts 89°
2026-04-17 11:58 61.16764 -150.21894 1831 ft 147 kts 89°
2026-04-17 11:58 61.16766 -150.19786 1635 ft 146 kts 89°
2026-04-17 11:58 61.16767 -150.17698 1444 ft 145 kts 88°
2026-04-17 11:59 61.16770 -150.15599 1253 ft 147 kts 88°
2026-04-17 11:59 61.16772 -150.13480 1058 ft 148 kts 88°
2026-04-17 11:59 61.16774 -150.11343 859 ft 149 kts 89°
2026-04-17 11:59 61.16776 -150.09199 661 ft 148 kts 89°
2026-04-17 12:00 61.16777 -150.07074 466 ft 147 kts 89°
2026-04-17 12:00 61.16779 -150.04932 273 ft 151 kts 89°
2026-04-17 12:00 61.16782 -150.02820 164 ft 136 kts 89°
2026-04-17 12:00 61.16782 -150.01333 163 ft 69 kts 91°
2026-04-17 12:01 61.16798 -150.00407 162 ft 56 kts 95°
2026-04-17 12:01 61.16809 -149.99846 162 ft 21 kts 81°
2026-04-17 12:01 61.16846 -149.99568 162 ft 19 kts 66°
2026-04-17 12:01 61.16904 -149.99402 162 ft 12 kts 39°
2026-04-17 12:02 61.17014 -149.99248 162 ft 24 kts 37°
2026-04-17 12:02 61.17084 -149.99140 162 ft 0 kts 38°
2026-04-17 12:05 61.17105 -149.99101 162 ft 8 kts 46°
2026-04-17 12:05 61.17121 -149.98982 162 ft 16 kts 93°
2026-04-17 12:06 61.17116 -149.98759 162 ft 16 kts 91°
2026-04-17 12:06 61.17115 -149.98536 162 ft 16 kts 89°
2026-04-17 12:06 61.17116 -149.98333 162 ft 16 kts 90°
2026-04-17 12:06 61.17116 -149.98130 162 ft 16 kts 90°
2026-04-17 12:07 61.17116 -149.97906 162 ft 16 kts 90°
2026-04-17 12:07 61.17116 -149.97791 162 ft 12 kts 90°